[[{"header":{"parameterUnit":"m.s-1","parameterCategory":1,"la1":30.2991,"la2":30.254,"lo1":-89.0895,"lo2":-89.0444,"dy":0.0017,"dx":0.0017,"nx":28,"ny":28,"refTime":"2025-02-02T09:00:00:Z","depth":0,"parameterNumber":2,"parameterNumberName":"U-component_of_WINDS"},"data":[0,0,0,0,0,0,0,0,0,0,0,0,0,0,0,0,0,0,0,0,0,0,0,0,0,0,0,0,0,0,0,0,0,0,0,0,0,0,0,0,0,0,0,0,0,0,0,0,0,0,0,0,0,0,0,0,0,0,-1.0038,-1.0039,0,-1.0131,-1.0132,-1.0133,-1.0103,-1.0101,-1.0099,-1.0097,-1.0199,-1.0204,-1.0208,0,0,0,0,0,0,0,0,0,0,0,0,0,-0.9839,-0.9843,-1.0038,-1.0039,-1.004,-1.0131,-1.0132,-1.0134,-1.0103,-1.01,-1.0098,-1.0096,-1.0198,-1.0203,-1.0209,0,0,0,0,0,0,0,0,0,0,0,0,0,-0.9928,-0.9844,-1.0037,-1.0035,-1.0036,-1.0131,-1.0132,-1.0134,-1.0104,-1.01,-1.0097,-1.0094,-1.0196,-1.0203,-1.0209,-1.0314,0,0,-1.0231,-1.0234,0,0,0,0,0,0,0,0,-0.9923,-0.9936,-1.0035,-1.0036,-1.0037,-1.0102,-1.01,-1.0195,-1.0104,-1.0078,-1.0097,-1.0093,-1.017,-1.0179,-1.0203,-1.0318,-1.0323,-1.0231,-1.0235,-1.0238,-1.024,0,0,0,0,0,0,0,-0.9917,-0.9932,-1.0075,-1.0036,-1.0037,-1.0032,-1.0041,-1.0118,-1.014,-1.008,-1.0078,-1.0089,-1.017,-1.0196,-1.0205,-1.0324,-1.0231,-1.0237,-1.0241,-1.0244,-1.0532,-1.0536,0,0,0,0,0,0,-0.9909,-0.9927,-1.0072,-1.0078,-0.9971,-1.0038,-1.0049,-1.0084,-1.0139,-1.0145,-1.0092,-1.0088,-1.0186,-1.0197,-1.0209,-1.0336,-1.0238,-1.0245,-1.0249,-1.0529,-1.0533,-1.0537,0,0,0,0,0,0,-0.9905,-0.9923,-1.0068,-1.0002,-1.002,-1.0045,-1.0085,-1.0088,-1.0114,-1.0148,-1.0152,-1.0115,-1.0184,-1.0199,-1.0288,-1.0339,-1.0248,-1.0254,-1.0525,-1.053,-1.0535,-1.059,0,0,0,0,0,0,-0.99,-0.9921,-0.996,-1.0003,-1.0023,-1.0144,-1.0088,-1.0092,-1.0126,-1.0121,-1.017,-1.0176,-1.0183,-1.0278,-1.0295,-1.0347,-1.026,-1.052,-1.0527,-1.0533,-1.0584,-1.0597,-1.0607,0,0,0,0,0,-0.9893,-0.9972,-0.9962,-0.9979,-1.0071,-1.0147,-1.0159,-1.0163,-1.013,-1.017,-1.0192,-1.0174,-1.033,-1.0287,-1.0306,-1.0361,-1.0517,-1.0525,-1.0533,-1.0579,-1.0594,-1.0607,0,0,0,0,0,0,-0.9937,-0.9978,-0.9966,-1.0062,-1.0101,-1.0141,-1.0191,-1.0179,-1.023,-1.0224,-1.0229,-1.0241,-1.0332,-1.0355,-1.0306,-1.0466,-1.0419,-1.0431,-1.0447,-1.0463,-1.0474,-1.0467,-1.0266,0,0,0,0,0,-0.9957,-1.0013,-1.0047,-1.0128,-1.0148,-1.0166,-1.0199,-1.0199,-1.0241,-1.0258,-1.0286,-1.0328,-1.0387,-1.0426,-1.0482,-1.0587,-1.0598,-1.0634,-1.0646,-1.0655,-1.0666,-1.0726,-1.0743,-1.0562,-1.0562,-1.0562,0,0,-1.0001,-1.003,-1.0065,-1.0137,-1.0167,-1.0227,-1.018,-1.0245,-1.0291,-1.0268,-1.0353,-1.0376,-1.0424,-1.0522,-1.0566,-1.0544,-1.0719,-1.0665,-1.0673,-1.0679,-1.0736,-1.0753,-1.0768,-1.0568,-1.0567,-1.0566,0,0,-1.0111,-1.0138,-1.0209,-1.024,-1.0285,-1.0297,-1.0315,-1.0357,-1.037,-1.0456,-1.044,-1.0495,-1.0596,-1.0631,-1.0662,-1.0787,-1.0774,-1.0805,-1.0867,-1.0925,-1.0939,-1.0952,-1.0998,-1.1015,-1.0815,-1.0816,-1.0816,0,-1.016,-1.0247,-1.0248,-1.0314,-1.0348,-1.0328,-1.0402,-1.0432,-1.0495,-1.0519,-1.0492,-1.0619,-1.065,-1.0756,-1.0787,-1.0812,-1.0834,-1.08,-1.0937,-1.0949,-1.0961,-1.1006,-1.1023,-1.0819,-1.0819,-1.0818,-1.0818,0,-1.0307,-1.0368,-1.042,-1.0479,-1.0518,-1.0588,-1.0601,-1.0641,-1.0638,-1.0653,-1.0742,-1.0778,-1.0842,-1.0867,-1.0865,-1.0974,-1.0959,-1.0934,-1.0888,-1.0982,-1.1024,-1.1041,-1.0824,-1.0823,-1.0822,-1.0821,0,0,-1.0448,-1.0506,-1.0525,-1.0552,-1.0601,-1.065,-1.072,-1.0779,-1.0815,-1.0859,-1.0919,-1.1005,-1.0983,-1.1018,-1.102,-1.1071,-1.1169,-1.1041,-1.1042,-1.1065,-1.1294,-1.1313,-1.1333,-1.116,-1.1163,-1.1166,-1.1291,0,-1.0564,-1.0684,-1.0687,-1.0798,-1.0856,-1.0838,-1.09,-1.0938,-1.0954,-1.1008,-1.1027,-1.1088,-1.1053,-1.1075,-1.1124,-1.1147,-1.1216,-1.1138,-1.1219,-1.1222,-1.1209,-1.1354,-1.1374,-1.149,-1.1307,-1.131,-1.1312,0,-1.0714,-1.0761,-1.0878,-1.092,-1.0944,-1.0999,-1.1055,-1.1105,-1.1149,-1.1157,-1.1197,-1.1192,-1.1266,-1.1216,-1.1319,-1.1266,-1.13,-1.1316,-1.1321,-1.133,-1.1274,-1.1369,-1.1527,-1.1545,-1.1337,-1.1335,-1.1333,0,-1.0808,-1.09,-1.0982,-1.1006,-1.1056,-1.1095,-1.1119,-1.1159,-1.1195,-1.1245,-1.1269,-1.1328,-1.136,-1.1407,-1.1419,-1.138,-1.1523,-1.1473,-1.1535,-1.1535,-1.1567,-1.1565,-1.1734,-1.1586,-1.1585,-1.1585,-1.1585,0,-1.0938,-1.101,-1.1025,-1.1076,-1.1158,-1.1161,-1.1243,-1.1263,-1.1299,-1.1356,-1.1345,-1.1398,-1.141,-1.1466,-1.1476,-1.1562,-1.1576,-1.1587,-1.1589,-1.1589,-1.1588,-1.1613,-1.1605,-1.159,-1.1589,-1.1588,-1.1587,0,-1.1056,-1.1069,-1.1158,-1.1197,-1.1209,-1.1268,-1.1303,-1.1353,-1.1368,-1.144,-1.1457,-1.1482,-1.1548,-1.1563,-1.1643,-1.165,-1.1751,-1.1745,-1.1736,-1.1736,-1.1798,-1.1792,-1.199,-1.2017,-1.1849,-1.1851,-1.1852,0,-1.1139,-1.1194,-1.124,-1.1275,-1.13,-1.1358,-1.1395,-1.1401,-1.144,-1.1495,-1.1539,-1.1603,-1.1655,-1.1762,-1.1789,-1.185,-1.1846,-1.1911,-1.1855,-1.1854,-1.1849,-1.1847,-1.1853,-1.1922,-1.1924,-1.1926,-1.1927,0,-1.1285,-1.1288,-1.1341,-1.1396,-1.1439,-1.1484,-1.1526,-1.1556,-1.1569,-1.1614,-1.168,-1.1721,-1.1801,-1.1866,-1.1928,-1.1954,-1.1944,-1.1944,-1.1962,-1.1963,-1.1956,-1.1962,-1.1767,-1.194,-1.1938,-1.1937,-1.1937,-1.1936,-1.139,-1.1438,-1.1478,-1.1537,-1.1569,-1.1609,-1.1658,-1.1679,-1.1733,-1.1798,-1.1799,-1.1872,-1.1916,-1.1997,-1.2028,-1.2087,-1.2067,-1.2092,-1.2099,-1.2106,-1.2112,-1.1945,-1.2098,-1.2097,-1.2097,-1.2097,-1.2097,0,-1.1536,-1.1561,-1.1615,-1.1674,-1.1721,-1.1704,-1.175,-1.1792,-1.1855,-1.1896,-1.1947,-1.2025,-1.2088,-1.2119,-1.2183,-1.2224,-1.2221,-1.2241,-1.2239,-1.2245,-1.2125,-1.2104,-1.2242,-1.2242,-1.2242,-1.2242,-1.2242,-1.2242,-1.1618,-1.17,-1.1709,-1.1808,-1.1832,-1.1902,-1.1931,-1.1968,-1.2001,-1.2087,-1.2139,-1.2158,-1.2196,-1.2262,-1.232,-1.2328,-1.2353,-1.2375,-1.2381,-1.2268,-1.2254,-1.224,-1.222,-1.238,-1.238,-1.2497,-1.2498,-1.2499]},{"header":{"parameterUnit":"m.s-1","parameterCategory":1,"la1":30.2991,"la2":30.254,"lo1":-89.0895,"lo2":-89.0444,"dy":0.0017,"dx":0.0017,"nx":28,"ny":28,"refTime":"2025-02-02T09:00:00:Z","depth":0,"parameterNumber":3,"parameterNumberName":"V-component_of_WINDS"},"data":[0,0,0,0,0,0,0,0,0,0,0,0,0,0,0,0,0,0,0,0,0,0,0,0,0,0,0,0,0,0,0,0,0,0,0,0,0,0,0,0,0,0,0,0,0,0,0,0,0,0,0,0,0,0,0,0,0,0,-0.7229,-0.7229,0,-0.7246,-0.7247,-0.7247,-0.7219,-0.7218,-0.7217,-0.7217,-0.7233,-0.7235,-0.7236,0,0,0,0,0,0,0,0,0,0,0,0,0,-0.717,-0.7171,-0.7229,-0.7229,-0.7229,-0.7246,-0.7247,-0.7247,-0.7219,-0.7218,-0.7217,-0.7216,-0.7233,-0.7234,-0.7236,0,0,0,0,0,0,0,0,0,0,0,0,0,-0.7192,-0.7171,-0.7229,-0.7218,-0.7217,-0.7246,-0.7247,-0.7247,-0.722,-0.7218,-0.7217,-0.7216,-0.7232,-0.7234,-0.7236,-0.7277,0,0,-0.7242,-0.7243,0,0,0,0,0,0,0,0,-0.7191,-0.7194,-0.7219,-0.7218,-0.7217,-0.7229,-0.7232,-0.7257,-0.722,-0.7219,-0.7216,-0.7215,-0.7233,-0.7235,-0.7241,-0.7278,-0.7278,-0.7243,-0.7244,-0.7245,-0.7245,0,0,0,0,0,0,0,-0.7189,-0.7193,-0.7236,-0.7219,-0.7218,-0.7211,-0.7213,-0.7236,-0.7233,-0.7219,-0.7217,-0.7219,-0.7232,-0.7239,-0.7241,-0.7279,-0.7242,-0.7244,-0.7245,-0.7246,-0.735,-0.7351,0,0,0,0,0,0,-0.7189,-0.7192,-0.7235,-0.7236,-0.72,-0.7213,-0.7215,-0.7227,-0.7233,-0.7233,-0.722,-0.7218,-0.7237,-0.7239,-0.7242,-0.729,-0.7245,-0.7246,-0.7248,-0.7348,-0.735,-0.7352,0,0,0,0,0,0,-0.7188,-0.7193,-0.7234,-0.7214,-0.7218,-0.7216,-0.7229,-0.7228,-0.7235,-0.7235,-0.7234,-0.7228,-0.7236,-0.7239,-0.7269,-0.729,-0.7247,-0.7249,-0.7346,-0.7349,-0.7351,-0.7387,0,0,0,0,0,0,-0.7187,-0.7193,-0.7209,-0.7214,-0.722,-0.7261,-0.7231,-0.7229,-0.7239,-0.7236,-0.7242,-0.7241,-0.7235,-0.7266,-0.7271,-0.7292,-0.7251,-0.7344,-0.7347,-0.735,-0.7384,-0.7391,-0.7396,0,0,0,0,0,-0.7185,-0.7218,-0.721,-0.7215,-0.7239,-0.7263,-0.7265,-0.7258,-0.7241,-0.7256,-0.7256,-0.7241,-0.7287,-0.7269,-0.7274,-0.7297,-0.7343,-0.7346,-0.735,-0.7381,-0.7389,-0.7396,0,0,0,0,0,0,-0.7215,-0.7219,-0.721,-0.7246,-0.7254,-0.7258,-0.7277,-0.7266,-0.7279,-0.7276,-0.7265,-0.7266,-0.7298,-0.73,-0.728,-0.7337,-0.7312,-0.7317,-0.7334,-0.7342,-0.7348,-0.7347,-0.7252,0,0,0,0,0,-0.7226,-0.7245,-0.7247,-0.7279,-0.7284,-0.728,-0.729,-0.7283,-0.7291,-0.7294,-0.7296,-0.7304,-0.732,-0.7331,-0.7346,-0.7384,-0.7385,-0.7402,-0.7408,-0.7413,-0.7418,-0.7438,-0.7446,-0.7363,-0.7363,-0.7363,0,0,-0.7249,-0.7253,-0.7266,-0.7285,-0.7291,-0.731,-0.7283,-0.7305,-0.7319,-0.7297,-0.7326,-0.7327,-0.7335,-0.7369,-0.7384,-0.7372,-0.7441,-0.7418,-0.7422,-0.7423,-0.7443,-0.745,-0.7457,-0.7365,-0.7365,-0.7365,0,0,-0.7301,-0.7306,-0.7333,-0.734,-0.7349,-0.7346,-0.7353,-0.7358,-0.7358,-0.7387,-0.7371,-0.7387,-0.7415,-0.7422,-0.7429,-0.7483,-0.747,-0.7488,-0.752,-0.754,-0.7546,-0.7552,-0.7572,-0.7579,-0.7492,-0.7492,-0.7492,0,-0.7328,-0.7358,-0.7349,-0.7372,-0.7381,-0.7362,-0.739,-0.7396,-0.7409,-0.7416,-0.7402,-0.7437,-0.7441,-0.7476,-0.749,-0.7496,-0.7503,-0.7488,-0.7546,-0.7552,-0.7557,-0.7576,-0.7583,-0.7494,-0.7494,-0.7494,-0.7494,0,-0.7391,-0.7412,-0.7432,-0.7447,-0.7458,-0.7483,-0.7477,-0.749,-0.7482,-0.748,-0.7509,-0.7513,-0.7529,-0.7537,-0.7529,-0.7571,-0.7563,-0.7548,-0.7523,-0.7567,-0.7585,-0.7592,-0.7498,-0.7497,-0.7496,-0.7496,0,0,-0.7463,-0.7472,-0.748,-0.7486,-0.7495,-0.751,-0.7534,-0.755,-0.7561,-0.757,-0.759,-0.7614,-0.76,-0.7608,-0.7601,-0.7619,-0.7662,-0.7601,-0.7601,-0.7613,-0.7709,-0.7721,-0.773,-0.7653,-0.7654,-0.7655,-0.7709,0,-0.7515,-0.7558,-0.7551,-0.7592,-0.7611,-0.7593,-0.7614,-0.7621,-0.7621,-0.7636,-0.7635,-0.7653,-0.7632,-0.7637,-0.7654,-0.7653,-0.7681,-0.7649,-0.7671,-0.7672,-0.7671,-0.7739,-0.7752,-0.7802,-0.7715,-0.7716,-0.7717,0,-0.7582,-0.7595,-0.7638,-0.7644,-0.7652,-0.7671,-0.7685,-0.77,-0.7707,-0.7706,-0.7715,-0.7704,-0.7728,-0.7702,-0.7734,-0.7713,-0.7721,-0.7722,-0.7724,-0.7726,-0.7698,-0.7743,-0.7817,-0.7825,-0.7728,-0.7727,-0.7726,0,-0.7631,-0.7659,-0.7689,-0.7694,-0.7702,-0.7716,-0.7719,-0.7725,-0.7735,-0.7747,-0.7753,-0.7768,-0.7776,-0.7786,-0.778,-0.7762,-0.7814,-0.7787,-0.7813,-0.7813,-0.7825,-0.7825,-0.7902,-0.783,-0.7829,-0.7829,-0.7829,0,-0.7691,-0.7718,-0.7711,-0.7729,-0.7759,-0.775,-0.778,-0.7781,-0.7787,-0.7805,-0.779,-0.7807,-0.7797,-0.7813,-0.7808,-0.7836,-0.7839,-0.7838,-0.7837,-0.784,-0.784,-0.7846,-0.7842,-0.7831,-0.7831,-0.783,-0.783,0,-0.7751,-0.7747,-0.7779,-0.7783,-0.7785,-0.7807,-0.781,-0.7827,-0.7825,-0.7848,-0.7853,-0.7849,-0.7868,-0.7862,-0.7881,-0.7878,-0.7913,-0.7907,-0.7911,-0.791,-0.7936,-0.7934,-0.802,-0.8031,-0.7951,-0.7952,-0.7953,0,-0.779,-0.781,-0.7817,-0.7828,-0.7833,-0.7852,-0.7862,-0.7853,-0.7864,-0.7875,-0.789,-0.7907,-0.7921,-0.795,-0.7949,-0.7964,-0.7958,-0.7988,-0.796,-0.7963,-0.7959,-0.7959,-0.7961,-0.7993,-0.7994,-0.7995,-0.7996,0,-0.7859,-0.7856,-0.7872,-0.7887,-0.79,-0.7911,-0.7921,-0.7931,-0.7923,-0.7936,-0.7955,-0.7965,-0.7985,-0.8002,-0.8015,-0.8018,-0.8006,-0.8004,-0.8011,-0.8015,-0.8017,-0.8017,-0.7927,-0.8002,-0.8002,-0.8001,-0.8001,-0.8,-0.791,-0.7928,-0.7935,-0.7953,-0.796,-0.797,-0.7986,-0.7986,-0.8002,-0.8018,-0.8012,-0.8033,-0.804,-0.8057,-0.8061,-0.8078,-0.8067,-0.8076,-0.8079,-0.8082,-0.8085,-0.8014,-0.808,-0.808,-0.808,-0.808,-0.8079,0,-0.7979,-0.7983,-0.7999,-0.8014,-0.8028,-0.8015,-0.8026,-0.8038,-0.8058,-0.8065,-0.8079,-0.81,-0.8117,-0.8117,-0.8132,-0.8145,-0.814,-0.815,-0.8149,-0.815,-0.8094,-0.8087,-0.8154,-0.8154,-0.8154,-0.8154,-0.8154,-0.8154,-0.8016,-0.8046,-0.8044,-0.8077,-0.808,-0.8102,-0.8109,-0.8118,-0.8124,-0.8149,-0.8163,-0.8163,-0.8167,-0.8183,-0.8197,-0.8197,-0.8203,-0.8215,-0.8213,-0.8161,-0.8154,-0.8147,-0.814,-0.8217,-0.8217,-0.8267,-0.8268,-0.8268]}]]